Tracking 20376 objects as of 20-Feb-2020
HD Live streaming from Space Station
objects crossing your sky now
Track the group of recently launched Starlink satellites

EXPLORER 30

Track EXPLORER 30 now!
10-day predictions
EXPLORER 30 is classified as:


NORAD ID: 1738
Int'l Code: 1965-093A
Perigee: 664.3 km
Apogee: 865.6 km
Inclination: 59.7 °
Period: 100.0 minutes
Semi major axis: 7135 km
RCS: 0.3725 m2 (medium)
Launch date: November 19, 1965
Source: United States (US)
Launch site: WALLOPS ISLAND (WLPIS)
aabbcc
Your satellite tracking list
Your tracking list is empty




NASA's NSSDC Master Catalog

Two Line Element Set (TLE):
1  1738U 65093A   20050.74032069 -.00000140 +00000-0 +52043-5 0  9995
2  1738 059.7075 168.4942 0140996 084.0664 277.6423 14.40212126844487
Source of the keplerian elements: AFSPC